Time,TemperatureF,DewpointF,PressureIn,WindDirection,WindDirectionDegrees,WindSpeedMPH,WindSpeedGustMPH,Humidity,HourlyPrecipIn,Conditions,Clouds,dailyrainin,SolarRadiationWatts/m^2,SoftwareType,DateUTC
2013-07-14 00:02:00,73.3,71.5,30.11,ESE,113,0.0,0.0,94,0.00,,,0.00,0.00,VWS V14.01,2013-07-14 04:02:00,
2013-07-14 00:07:00,73.3,71.5,30.11,SE,125,4.0,4.0,94,0.00,,,0.00,0.00,VWS V14.01,2013-07-14 04:07:00,
2013-07-14 00:12:00,73.3,71.5,30.11,ESE,106,0.0,0.0,94,0.00,,,0.00,0.00,VWS V14.01,2013-07-14 04:12:00,
2013-07-14 00:17:00,73.3,71.5,30.12,ESE,105,1.0,3.0,94,0.01,,,0.01,0.00,VWS V14.01,2013-07-14 04:17:00,
2013-07-14 00:22:00,73.3,71.5,30.12,SE,125,8.0,9.0,94,0.01,,,0.01,0.00,VWS V14.01,2013-07-14 04:22:00,
2013-07-14 00:27:00,73.3,71.5,30.12,ENE,67,3.0,5.0,94,0.01,,,0.01,0.00,VWS V14.01,2013-07-14 04:27:00,
2013-07-14 00:32:00,73.3,71.5,30.12,East,91,0.0,0.0,94,0.01,,,0.01,0.00,VWS V14.01,2013-07-14 04:32:00,
2013-07-14 00:37:00,73.2,71.4,30.12,East,92,0.0,0.0,94,0.01,,,0.01,0.00,VWS V14.01,2013-07-14 04:37:00,
2013-07-14 00:42:00,73.2,71.4,30.12,ESE,113,2.0,4.0,94,0.01,,,0.01,0.00,VWS V14.01,2013-07-14 04:42:00,
2013-07-14 00:47:00,73.2,71.4,30.12,SE,141,0.0,1.0,94,0.01,,,0.01,0.00,VWS V14.01,2013-07-14 04:47:00,
2013-07-14 00:52:00,73.2,71.4,30.12,ESE,105,2.0,4.0,94,0.01,,,0.01,0.00,VWS V14.01,2013-07-14 04:52:00,
2013-07-14 00:57:00,73.0,71.2,30.12,ESE,105,1.0,1.0,94,0.01,,,0.01,0.00,VWS V14.01,2013-07-14 04:57:00,
2013-07-14 01:02:00,73.0,71.2,30.12,East,82,0.0,0.0,94,0.01,,,0.01,0.00,VWS V14.01,2013-07-14 05:02:00,
2013-07-14 01:07:00,72.8,71.0,30.12,ENE,75,0.0,0.0,94,0.01,,,0.01,0.00,VWS V14.01,2013-07-14 05:07:00,
2013-07-14 01:12:00,72.8,71.3,30.12,SE,131,0.0,0.0,95,0.01,,,0.01,0.00,VWS V14.01,2013-07-14 05:12:00,
2013-07-14 01:17:00,72.8,71.3,30.12,SE,127,0.0,0.0,95,0.00,,,0.01,0.00,VWS V14.01,2013-07-14 05:17:00,
2013-07-14 01:22:00,72.7,71.2,30.12,ESE,118,0.0,0.0,95,0.00,,,0.01,0.00,VWS V14.01,2013-07-14 05:22:00,
2013-07-14 01:27:00,72.7,71.2,30.12,ESE,117,0.0,0.0,95,0.00,,,0.01,0.00,VWS V14.01,2013-07-14 05:27:00,
2013-07-14 01:32:00,72.7,71.2,30.12,ESE,111,0.0,2.0,95,0.00,,,0.01,0.00,VWS V14.01,2013-07-14 05:32:00,
2013-07-14 01:37:00,72.5,71.0,30.12,ESE,111,0.0,0.0,95,0.00,,,0.01,0.00,VWS V14.01,2013-07-14 05:37:00,
2013-07-14 01:42:00,72.3,70.8,30.12,ESE,113,0.0,0.0,95,0.00,,,0.01,0.00,VWS V14.01,2013-07-14 05:42:00,
2013-07-14 01:47:00,72.3,70.8,30.13,ESE,116,0.0,0.0,95,0.00,,,0.01,0.00,VWS V14.01,2013-07-14 05:47:00,
2013-07-14 01:52:00,72.3,70.8,30.13,ESE,116,0.0,0.0,95,0.00,,,0.01,0.00,VWS V14.01,2013-07-14 05:52:00,
2013-07-14 01:57:00,72.3,70.8,30.13,ESE,115,0.0,0.0,95,0.00,,,0.01,0.00,VWS V14.01,2013-07-14 05:57:00,
2013-07-14 02:02:00,72.1,70.6,30.13,ESE,112,3.0,3.0,95,0.00,,,0.01,0.00,VWS V14.01,2013-07-14 06:02:00,
2013-07-14 02:07:00,72.1,70.6,30.13,ESE,112,0.0,0.0,95,0.00,,,0.01,0.00,VWS V14.01,2013-07-14 06:07:00,
2013-07-14 02:12:00,72.1,70.6,30.13,ESE,112,0.0,0.0,95,0.00,,,0.01,0.00,VWS V14.01,2013-07-14 06:12:00,
2013-07-14 02:17:00,72.0,70.5,30.13,ESE,112,0.0,0.0,95,0.00,,,0.01,0.00,VWS V14.01,2013-07-14 06:17:00,
2013-07-14 02:22:00,71.8,70.3,30.13,ESE,112,0.0,0.0,95,0.00,,,0.01,0.00,VWS V14.01,2013-07-14 06:22:00,
2013-07-14 02:27:00,71.8,70.3,30.13,ESE,112,0.0,0.0,95,0.00,,,0.01,0.00,VWS V14.01,2013-07-14 06:27:00,
2013-07-14 02:32:00,71.8,70.3,30.13,ESE,112,1.0,1.0,95,0.00,,,0.01,0.00,VWS V14.01,2013-07-14 06:32:00,
2013-07-14 02:37:00,72.0,70.5,30.13,ESE,112,0.0,0.0,95,0.00,,,0.01,0.00,VWS V14.01,2013-07-14 06:37:00,
2013-07-14 02:42:00,72.0,70.5,30.13,ESE,112,0.0,0.0,95,0.00,,,0.01,0.00,VWS V14.01,2013-07-14 06:42:00,
2013-07-14 02:47:00,72.0,70.5,30.14,ESE,112,0.0,0.0,95,0.00,,,0.01,0.00,VWS V14.01,2013-07-14 06:47:00,
2013-07-14 02:52:00,72.0,70.5,30.14,ESE,112,0.0,0.0,95,0.00,,,0.01,0.00,VWS V14.01,2013-07-14 06:52:00,
2013-07-14 02:57:00,71.8,70.3,30.14,ESE,112,0.0,0.0,95,0.00,,,0.01,0.00,VWS V14.01,2013-07-14 06:57:00,
2013-07-14 03:02:00,71.8,70.6,30.13,ESE,112,0.0,0.0,96,0.00,,,0.01,0.00,VWS V14.01,2013-07-14 07:02:00,
2013-07-14 03:07:00,71.8,70.6,30.13,ESE,112,0.0,0.0,96,0.00,,,0.01,0.00,VWS V14.01,2013-07-14 07:07:00,
2013-07-14 03:12:00,71.8,70.6,30.13,ESE,114,3.0,3.0,96,0.00,,,0.01,0.00,VWS V14.01,2013-07-14 07:12:00,
2013-07-14 03:17:00,71.8,70.6,30.13,ESE,112,6.0,6.0,96,0.00,,,0.01,0.00,VWS V14.01,2013-07-14 07:17:00,
2013-07-14 03:22:00,72.0,70.8,30.13,SE,127,0.0,0.0,96,0.00,,,0.01,0.00,VWS V14.01,2013-07-14 07:22:00,
2013-07-14 03:27:00,72.0,70.8,30.13,ESE,105,0.0,0.0,96,0.00,,,0.01,0.00,VWS V14.01,2013-07-14 07:27:00,
2013-07-14 03:32:00,71.8,70.6,30.13,ESE,120,0.0,0.0,96,0.00,,,0.01,0.00,VWS V14.01,2013-07-14 07:32:00,
2013-07-14 03:37:00,71.8,70.6,30.13,ESE,109,0.0,0.0,96,0.00,,,0.01,0.00,VWS V14.01,2013-07-14 07:37:00,
2013-07-14 03:42:00,71.8,70.6,30.13,ESE,105,0.0,0.0,96,0.00,,,0.01,0.00,VWS V14.01,2013-07-14 07:42:00,
2013-07-14 03:47:00,71.8,70.6,30.13,ESE,115,4.0,4.0,96,0.00,,,0.01,0.00,VWS V14.01,2013-07-14 07:47:00,
2013-07-14 03:52:00,71.6,70.4,30.13,ESE,115,0.0,0.0,96,0.00,,,0.01,0.00,VWS V14.01,2013-07-14 07:52:00,
2013-07-14 03:57:00,71.5,70.3,30.13,ESE,115,0.0,0.0,96,0.00,,,0.01,0.00,VWS V14.01,2013-07-14 07:57:00,
2013-07-14 04:02:00,71.5,70.3,30.13,ESE,116,0.0,0.0,96,0.00,,,0.01,0.00,VWS V14.01,2013-07-14 08:02:00,
2013-07-14 04:07:00,71.5,70.3,30.13,ESE,116,0.0,0.0,96,0.00,,,0.01,0.00,VWS V14.01,2013-07-14 08:07:00,
2013-07-14 04:12:00,71.5,70.3,30.13,ESE,116,0.0,0.0,96,0.00,,,0.01,0.00,VWS V14.01,2013-07-14 08:12:00,
2013-07-14 04:17:00,71.3,70.1,30.14,ESE,116,0.0,0.0,96,0.00,,,0.01,0.00,VWS V14.01,2013-07-14 08:17:00,
2013-07-14 04:22:00,71.1,69.9,30.14,ESE,116,0.0,0.0,96,0.00,,,0.01,0.00,VWS V14.01,2013-07-14 08:22:00,
2013-07-14 04:27:00,71.1,69.9,30.14,ESE,116,0.0,0.0,96,0.00,,,0.01,0.00,VWS V14.01,2013-07-14 08:27:00,
2013-07-14 04:32:00,71.1,69.9,30.14,ESE,116,0.0,0.0,96,0.00,,,0.01,0.00,VWS V14.01,2013-07-14 08:32:00,
2013-07-14 04:37:00,71.1,69.9,30.14,ESE,116,0.0,0.0,96,0.00,,,0.01,0.00,VWS V14.01,2013-07-14 08:37:00,
2013-07-14 04:42:00,70.9,69.7,30.14,ESE,116,0.0,0.0,96,0.00,,,0.01,0.00,VWS V14.01,2013-07-14 08:42:00,
2013-07-14 04:47:00,70.9,69.7,30.14,ESE,116,0.0,0.0,96,0.00,,,0.01,0.00,VWS V14.01,2013-07-14 08:47:00,
2013-07-14 04:52:00,70.8,69.6,30.14,ESE,116,0.0,0.0,96,0.00,,,0.01,0.00,VWS V14.01,2013-07-14 08:52:00,
2013-07-14 04:57:00,70.6,69.4,30.14,ESE,116,0.0,0.0,96,0.00,,,0.01,0.00,VWS V14.01,2013-07-14 08:57:00,
2013-07-14 05:02:00,70.6,69.4,30.15,ESE,116,0.0,0.0,96,0.00,,,0.01,0.00,VWS V14.01,2013-07-14 09:02:00,
2013-07-14 05:07:00,70.4,69.2,30.15,ESE,116,0.0,0.0,96,0.00,,,0.01,0.00,VWS V14.01,2013-07-14 09:07:00,
2013-07-14 05:12:00,70.4,69.2,30.15,ESE,116,0.0,0.0,96,0.00,,,0.01,0.00,VWS V14.01,2013-07-14 09:12:00,
2013-07-14 05:17:00,70.3,69.1,30.15,ESE,116,0.0,0.0,96,0.00,,,0.01,0.00,VWS V14.01,2013-07-14 09:17:00,
2013-07-14 05:22:00,70.1,68.9,30.15,ESE,116,0.0,0.0,96,0.00,,,0.01,0.00,VWS V14.01,2013-07-14 09:22:00,
2013-07-14 05:27:00,69.9,68.7,30.15,ESE,116,0.0,0.0,96,0.00,,,0.01,0.00,VWS V14.01,2013-07-14 09:27:00,
2013-07-14 05:32:00,69.8,68.6,30.16,ESE,116,0.0,0.0,96,0.00,,,0.01,0.00,VWS V14.01,2013-07-14 09:32:00,
2013-07-14 05:37:00,69.8,68.6,30.16,ESE,116,0.0,0.0,96,0.00,,,0.01,0.00,VWS V14.01,2013-07-14 09:37:00,
2013-07-14 05:42:00,69.8,68.6,30.16,ESE,116,0.0,0.0,96,0.00,,,0.01,0.00,VWS V14.01,2013-07-14 09:42:00,
2013-07-14 05:47:00,69.8,68.6,30.17,ESE,116,0.0,0.0,96,0.00,,,0.01,0.00,VWS V14.01,2013-07-14 09:47:00,
2013-07-14 05:52:00,69.8,68.6,30.17,ESE,116,0.0,0.0,96,0.00,,,0.01,0.00,VWS V14.01,2013-07-14 09:52:00,
2013-07-14 05:57:00,69.8,68.6,30.17,ESE,116,0.0,0.0,96,0.00,,,0.01,0.00,VWS V14.01,2013-07-14 09:57:00,
2013-07-14 06:02:00,69.9,68.7,30.17,ESE,116,0.0,0.0,96,0.00,,,0.01,0.00,VWS V14.01,2013-07-14 10:02:00,
2013-07-14 06:07:00,69.9,68.7,30.17,ESE,116,0.0,0.0,96,0.00,,,0.01,0.00,VWS V14.01,2013-07-14 10:07:00,
2013-07-14 06:12:00,69.9,68.7,30.17,ESE,116,0.0,0.0,96,0.00,,,0.01,0.00,VWS V14.01,2013-07-14 10:12:00,
2013-07-14 06:17:00,69.9,68.7,30.17,ESE,116,0.0,0.0,96,0.00,,,0.01,7.00,VWS V14.01,2013-07-14 10:17:00,
2013-07-14 06:22:00,69.9,68.7,30.17,ESE,116,0.0,0.0,96,0.00,,,0.01,9.00,VWS V14.01,2013-07-14 10:22:00,
2013-07-14 06:27:00,69.9,68.7,30.17,ESE,116,0.0,0.0,96,0.00,,,0.01,12.00,VWS V14.01,2013-07-14 10:27:00,
2013-07-14 06:32:00,69.9,68.7,30.18,ESE,116,0.0,0.0,96,0.00,,,0.01,16.00,VWS V14.01,2013-07-14 10:32:00,
2013-07-14 06:37:00,69.9,68.7,30.18,ESE,116,0.0,0.0,96,0.00,,,0.01,16.00,VWS V14.01,2013-07-14 10:37:00,
2013-07-14 06:42:00,69.9,68.7,30.18,ESE,116,0.0,0.0,96,0.00,,,0.01,19.00,VWS V14.01,2013-07-14 10:42:00,
2013-07-14 06:47:00,70.1,68.9,30.18,ESE,116,0.0,0.0,96,0.00,,,0.01,19.00,VWS V14.01,2013-07-14 10:47:00,
2013-07-14 06:52:00,70.3,69.1,30.18,ESE,116,0.0,0.0,96,0.00,,,0.01,25.00,VWS V14.01,2013-07-14 10:52:00,
2013-07-14 06:57:00,70.4,69.2,30.18,ESE,116,0.0,0.0,96,0.00,,,0.01,25.00,VWS V14.01,2013-07-14 10:57:00,
2013-07-14 07:02:00,70.6,69.4,30.19,ESE,116,0.0,0.0,96,0.00,,,0.01,26.00,VWS V14.01,2013-07-14 11:02:00,
2013-07-14 07:07:00,70.8,69.9,30.19,ESE,116,0.0,0.0,97,0.00,,,0.01,30.00,VWS V14.01,2013-07-14 11:07:00,
2013-07-14 07:12:00,70.9,70.0,30.19,ESE,116,0.0,0.0,97,0.00,,,0.01,32.00,VWS V14.01,2013-07-14 11:12:00,
2013-07-14 07:17:00,71.1,70.2,30.19,ESE,116,0.0,0.0,97,0.00,,,0.01,33.00,VWS V14.01,2013-07-14 11:17:00,
2013-07-14 07:22:00,71.3,70.4,30.19,ESE,116,0.0,0.0,97,0.00,,,0.01,39.00,VWS V14.01,2013-07-14 11:22:00,
2013-07-14 07:27:00,71.6,70.7,30.19,ESE,116,0.0,0.0,97,0.00,,,0.01,69.00,VWS V14.01,2013-07-14 11:27:00,
2013-07-14 07:32:00,72.0,71.1,30.19,ESE,116,0.0,0.0,97,0.00,,,0.01,62.00,VWS V14.01,2013-07-14 11:32:00,
2013-07-14 07:37:00,72.3,71.4,30.19,ESE,117,0.0,0.0,97,0.00,,,0.01,79.00,VWS V14.01,2013-07-14 11:37:00,
2013-07-14 07:42:00,72.7,71.8,30.19,East,101,2.0,2.0,97,0.00,,,0.01,90.00,VWS V14.01,2013-07-14 11:42:00,
2013-07-14 07:47:00,73.0,72.1,30.19,East,90,2.0,4.0,97,0.00,,,0.01,83.00,VWS V14.01,2013-07-14 11:47:00,
2013-07-14 07:52:00,73.2,72.3,30.19,East,87,0.0,2.0,97,0.00,,,0.01,83.00,VWS V14.01,2013-07-14 11:52:00,
2013-07-14 07:57:00,73.3,72.4,30.19,East,88,1.0,1.0,97,0.00,,,0.01,144.00,VWS V14.01,2013-07-14 11:57:00,
2013-07-14 08:02:00,73.7,72.8,30.20,East,85,2.0,3.0,97,0.00,,,0.01,127.00,VWS V14.01,2013-07-14 12:02:00,
2013-07-14 08:07:00,73.9,73.0,30.20,SE,124,6.0,7.0,97,0.00,,,0.01,132.00,VWS V14.01,2013-07-14 12:07:00,
2013-07-14 08:12:00,74.0,73.1,30.20,ESE,103,3.0,3.0,97,0.00,,,0.01,148.00,VWS V14.01,2013-07-14 12:12:00,
2013-07-14 08:17:00,74.2,73.3,30.20,SE,136,0.0,5.0,97,0.00,,,0.01,178.00,VWS V14.01,2013-07-14 12:17:00,
2013-07-14 08:22:00,74.6,73.4,30.20,ESE,110,3.0,4.0,96,0.00,,,0.01,171.00,VWS V14.01,2013-07-14 12:22:00,
2013-07-14 08:27:00,74.7,73.5,30.20,ENE,74,0.0,4.0,96,0.00,,,0.01,169.00,VWS V14.01,2013-07-14 12:27:00,
2013-07-14 08:32:00,75.1,73.9,30.20,ENE,78,0.0,3.0,96,0.00,,,0.01,239.00,VWS V14.01,2013-07-14 12:32:00,
2013-07-14 08:37:00,75.4,74.2,30.20,ENE,78,0.0,0.0,96,0.00,,,0.01,193.00,VWS V14.01,2013-07-14 12:37:00,
2013-07-14 08:42:00,75.6,74.4,30.20,ENE,78,5.0,7.0,96,0.00,,,0.01,148.00,VWS V14.01,2013-07-14 12:42:00,
2013-07-14 08:47:00,75.8,74.6,30.20,SE,146,0.0,0.0,96,0.00,,,0.01,258.00,VWS V14.01,2013-07-14 12:47:00,
2013-07-14 08:52:00,76.0,74.8,30.20,ESE,110,0.0,5.0,96,0.00,,,0.01,216.00,VWS V14.01,2013-07-14 12:52:00,
2013-07-14 08:57:00,76.3,74.8,30.20,East,89,5.0,5.0,95,0.00,,,0.01,213.00,VWS V14.01,2013-07-14 12:57:00,
2013-07-14 09:02:00,76.7,75.2,30.21,ENE,75,4.0,4.0,95,0.00,,,0.01,149.00,VWS V14.01,2013-07-14 13:02:00,
2013-07-14 09:07:00,76.8,74.9,30.21,ESE,108,2.0,2.0,94,0.00,,,0.01,206.00,VWS V14.01,2013-07-14 13:07:00,
2013-07-14 09:12:00,77.0,74.8,30.21,ESE,122,2.0,6.0,93,0.00,,,0.01,243.00,VWS V14.01,2013-07-14 13:12:00,
2013-07-14 09:17:00,77.4,74.9,30.21,SE,146,0.0,4.0,92,0.00,,,0.01,722.00,VWS V14.01,2013-07-14 13:17:00,
2013-07-14 09:22:00,77.9,75.1,30.21,East,89,0.0,0.0,91,0.00,,,0.01,171.00,VWS V14.01,2013-07-14 13:22:00,
2013-07-14 09:27:00,78.3,74.8,30.21,East,85,0.0,2.0,89,0.00,,,0.01,199.00,VWS V14.01,2013-07-14 13:27:00,
2013-07-14 09:32:00,78.5,74.7,30.22,East,79,2.0,7.0,88,0.00,,,0.01,473.00,VWS V14.01,2013-07-14 13:32:00,
2013-07-14 09:37:00,79.0,74.5,30.22,East,84,5.0,6.0,86,0.00,,,0.01,316.00,VWS V14.01,2013-07-14 13:37:00,
2013-07-14 09:42:00,79.2,73.9,30.22,East,91,5.0,10.0,84,0.00,,,0.01,225.00,VWS V14.01,2013-07-14 13:42:00,
2013-07-14 09:47:00,79.6,74.0,30.21,ESE,111,2.0,7.0,83,0.00,,,0.01,229.00,VWS V14.01,2013-07-14 13:47:00,
2013-07-14 09:52:00,79.9,73.9,30.21,East,92,1.0,5.0,82,0.00,,,0.01,840.00,VWS V14.01,2013-07-14 13:52:00,
2013-07-14 09:57:00,80.5,74.1,30.21,SE,136,9.0,9.0,81,0.00,,,0.01,874.00,VWS V14.01,2013-07-14 13:57:00,
2013-07-14 10:02:00,80.9,74.2,30.21,ENE,75,4.0,5.0,80,0.00,,,0.01,837.00,VWS V14.01,2013-07-14 14:02:00,
2013-07-14 10:07:00,81.2,74.1,30.21,East,86,0.0,3.0,79,0.00,,,0.01,339.00,VWS V14.01,2013-07-14 14:07:00,
2013-07-14 10:12:00,81.6,74.5,30.21,ENE,60,7.0,10.0,79,0.00,,,0.01,803.00,VWS V14.01,2013-07-14 14:12:00,
2013-07-14 10:17:00,81.8,73.9,30.22,ESE,116,4.0,4.0,77,0.00,,,0.01,334.00,VWS V14.01,2013-07-14 14:17:00,
2013-07-14 10:22:00,82.4,74.9,30.22,SE,134,0.0,5.0,78,0.00,,,0.01,860.00,VWS V14.01,2013-07-14 14:22:00,
2013-07-14 10:27:00,83.0,74.7,30.22,SSE,152,0.0,5.0,76,0.00,,,0.01,795.00,VWS V14.01,2013-07-14 14:27:00,
2013-07-14 10:32:00,83.8,74.2,30.22,ENE,60,4.0,7.0,73,0.00,,,0.01,800.00,VWS V14.01,2013-07-14 14:32:00,
2013-07-14 10:37:00,84.3,73.9,30.22,East,98,0.0,6.0,71,0.00,,,0.01,777.00,VWS V14.01,2013-07-14 14:37:00,
2013-07-14 10:42:00,84.7,73.4,30.22,SE,141,0.0,1.0,69,0.00,,,0.01,837.00,VWS V14.01,2013-07-14 14:42:00,
2013-07-14 10:47:00,85.1,73.4,30.22,ENE,77,0.0,0.0,68,0.00,,,0.01,248.00,VWS V14.01,2013-07-14 14:47:00,
2013-07-14 10:52:00,84.9,73.2,30.22,East,89,0.0,4.0,68,0.00,,,0.01,257.00,VWS V14.01,2013-07-14 14:52:00,
2013-07-14 10:57:00,85.3,73.6,30.22,East,98,0.0,5.0,68,0.00,,,0.01,860.00,VWS V14.01,2013-07-14 14:57:00,
2013-07-14 11:02:00,85.7,73.0,30.22,East,89,3.0,5.0,66,0.00,,,0.01,879.00,VWS V14.01,2013-07-14 15:02:00,
2013-07-14 11:07:00,86.1,72.5,30.22,SSE,152,5.0,11.0,64,0.00,,,0.01,867.00,VWS V14.01,2013-07-14 15:07:00,
2013-07-14 11:12:00,86.1,71.6,30.22,East,80,6.0,7.0,62,0.00,,,0.01,919.00,VWS V14.01,2013-07-14 15:12:00,
2013-07-14 11:17:00,86.1,72.0,30.22,ESE,113,0.0,6.0,63,0.00,,,0.01,612.00,VWS V14.01,2013-07-14 15:17:00,
2013-07-14 11:22:00,86.3,72.2,30.22,ESE,117,0.0,7.0,63,0.00,,,0.01,902.00,VWS V14.01,2013-07-14 15:22:00,
2013-07-14 11:27:00,86.7,72.1,30.22,ESE,106,0.0,4.0,62,0.00,,,0.01,181.00,VWS V14.01,2013-07-14 15:27:00,
2013-07-14 11:32:00,86.7,71.7,30.22,SSW,199,4.0,10.0,61,0.00,,,0.01,918.00,VWS V14.01,2013-07-14 15:32:00,
2013-07-14 11:37:00,86.5,71.5,30.22,ESE,111,3.0,4.0,61,0.00,,,0.01,911.00,VWS V14.01,2013-07-14 15:37:00,
2013-07-14 11:42:00,87.0,72.9,30.22,ESE,120,8.0,9.0,63,0.00,,,0.01,928.00,VWS V14.01,2013-07-14 15:42:00,
2013-07-14 11:47:00,87.2,70.6,30.21,ESE,121,2.0,6.0,58,0.00,,,0.01,942.00,VWS V14.01,2013-07-14 15:47:00,
2013-07-14 11:52:00,87.6,71.5,30.21,SSE,156,0.0,0.0,59,0.00,,,0.01,1004.00,VWS V14.01,2013-07-14 15:52:00,
2013-07-14 11:57:00,88.0,70.9,30.21,East,94,0.0,5.0,57,0.00,,,0.01,937.00,VWS V14.01,2013-07-14 15:57:00,
2013-07-14 12:02:00,88.2,71.1,30.21,East,94,0.0,2.0,57,0.00,,,0.01,984.00,VWS V14.01,2013-07-14 16:02:00,
2013-07-14 12:07:00,88.6,70.9,30.21,East,98,0.0,0.0,56,0.00,,,0.01,294.00,VWS V14.01,2013-07-14 16:07:00,
2013-07-14 12:12:00,88.6,70.4,30.21,SE,135,9.0,9.0,55,0.00,,,0.01,1071.00,VWS V14.01,2013-07-14 16:12:00,
2013-07-14 12:17:00,88.6,70.9,30.21,ESE,117,4.0,6.0,56,0.00,,,0.01,1074.00,VWS V14.01,2013-07-14 16:17:00,
2013-07-14 12:22:00,88.8,71.1,30.21,SE,136,0.0,4.0,56,0.00,,,0.01,1009.00,VWS V14.01,2013-07-14 16:22:00,
2013-07-14 12:27:00,89.3,71.6,30.21,SE,139,0.0,1.0,56,0.00,,,0.01,1030.00,VWS V14.01,2013-07-14 16:27:00,
2013-07-14 12:32:00,89.7,70.3,30.21,SE,137,5.0,5.0,53,0.00,,,0.01,997.00,VWS V14.01,2013-07-14 16:32:00,
2013-07-14 12:37:00,90.1,71.8,30.21,East,91,4.0,5.0,55,0.00,,,0.01,1004.00,VWS V14.01,2013-07-14 16:37:00,
2013-07-14 12:42:00,90.3,71.4,30.21,ENE,64,4.0,5.0,54,0.00,,,0.01,1032.00,VWS V14.01,2013-07-14 16:42:00,
2013-07-14 12:47:00,90.3,70.3,30.21,ESE,105,0.0,0.0,52,0.00,,,0.01,1021.00,VWS V14.01,2013-07-14 16:47:00,
2013-07-14 12:52:00,90.5,72.7,30.21,East,92,5.0,5.0,56,0.00,,,0.01,1028.00,VWS V14.01,2013-07-14 16:52:00,
2013-07-14 12:57:00,90.5,71.1,30.21,East,84,0.0,0.0,53,0.00,,,0.01,710.00,VWS V14.01,2013-07-14 16:57:00,
2013-07-14 13:02:00,90.5,71.6,30.20,SSE,158,3.0,5.0,54,0.00,,,0.01,348.00,VWS V14.01,2013-07-14 17:02:00,
2013-07-14 13:07:00,89.5,71.2,30.20,ESE,113,6.0,6.0,55,0.00,,,0.01,403.00,VWS V14.01,2013-07-14 17:07:00,
2013-07-14 13:12:00,88.8,71.1,30.20,East,87,0.0,6.0,56,0.00,,,0.01,1048.00,VWS V14.01,2013-07-14 17:12:00,
2013-07-14 13:17:00,89.0,71.8,30.20,ESE,108,7.0,7.0,57,0.00,,,0.01,1118.00,VWS V14.01,2013-07-14 17:17:00,
2013-07-14 13:22:00,89.0,70.8,30.20,ESE,116,3.0,5.0,55,0.00,,,0.01,360.00,VWS V14.01,2013-07-14 17:22:00,
2013-07-14 13:27:00,88.6,71.4,30.20,ESE,113,3.0,4.0,57,0.00,,,0.01,387.00,VWS V14.01,2013-07-14 17:27:00,
2013-07-14 13:32:00,88.4,71.8,30.20,ENE,66,0.0,4.0,58,0.00,,,0.01,360.00,VWS V14.01,2013-07-14 17:32:00,
2013-07-14 13:37:00,88.2,72.1,30.20,ENE,61,7.0,10.0,59,0.00,,,0.01,320.00,VWS V14.01,2013-07-14 17:37:00,
2013-07-14 13:42:00,88.0,72.4,30.20,ENE,72,0.0,1.0,60,0.00,,,0.01,1137.00,VWS V14.01,2013-07-14 17:42:00,
2013-07-14 13:47:00,88.6,71.9,30.20,ENE,65,7.0,11.0,58,0.00,,,0.01,1113.00,VWS V14.01,2013-07-14 17:47:00,
2013-07-14 13:52:00,88.8,71.6,30.20,SE,138,5.0,5.0,57,0.00,,,0.01,986.00,VWS V14.01,2013-07-14 17:52:00,
2013-07-14 13:57:00,88.8,71.6,30.20,NE,51,2.0,2.0,57,0.00,,,0.01,360.00,VWS V14.01,2013-07-14 17:57:00,
2013-07-14 14:02:00,88.4,71.2,30.20,ENE,58,6.0,6.0,57,0.00,,,0.01,244.00,VWS V14.01,2013-07-14 18:02:00,
2013-07-14 14:07:00,88.0,71.9,30.20,ENE,67,0.0,0.0,59,0.00,,,0.01,257.00,VWS V14.01,2013-07-14 18:07:00,
2013-07-14 14:12:00,88.0,71.9,30.20,ENE,65,0.0,2.0,59,0.00,,,0.01,1078.00,VWS V14.01,2013-07-14 18:12:00,
2013-07-14 14:17:00,88.4,71.8,30.19,NE,50,2.0,2.0,58,0.00,,,0.01,297.00,VWS V14.01,2013-07-14 18:17:00,
2013-07-14 14:22:00,88.6,72.9,30.19,ENE,61,4.0,6.0,60,0.00,,,0.01,1020.00,VWS V14.01,2013-07-14 18:22:00,
2013-07-14 14:27:00,88.8,71.6,30.19,ESE,119,1.0,1.0,57,0.00,,,0.01,649.00,VWS V14.01,2013-07-14 18:27:00,
2013-07-14 14:32:00,89.5,70.1,30.19,ESE,115,2.0,6.0,53,0.00,,,0.01,925.00,VWS V14.01,2013-07-14 18:32:00,
2013-07-14 14:37:00,89.9,73.2,30.19,ENE,77,3.0,5.0,58,0.00,,,0.01,940.00,VWS V14.01,2013-07-14 18:37:00,
2013-07-14 14:42:00,89.9,71.6,30.19,SE,140,0.0,1.0,55,0.00,,,0.01,745.00,VWS V14.01,2013-07-14 18:42:00,
2013-07-14 14:47:00,90.3,70.9,30.19,East,82,2.0,3.0,53,0.00,,,0.01,1042.00,VWS V14.01,2013-07-14 18:47:00,
2013-07-14 14:52:00,90.5,72.1,30.19,East,96,7.0,7.0,55,0.00,,,0.01,1034.00,VWS V14.01,2013-07-14 18:52:00,
2013-07-14 14:57:00,90.7,71.2,30.19,East,85,5.0,5.0,53,0.00,,,0.01,932.00,VWS V14.01,2013-07-14 18:57:00,
2013-07-14 15:02:00,91.0,71.5,30.18,East,101,9.0,9.0,53,0.00,,,0.01,854.00,VWS V14.01,2013-07-14 19:02:00,
2013-07-14 15:07:00,91.0,70.9,30.18,ESE,108,7.0,7.0,52,0.00,,,0.01,828.00,VWS V14.01,2013-07-14 19:07:00,
2013-07-14 15:12:00,91.0,72.6,30.18,NE,53,7.0,7.0,55,0.00,,,0.01,809.00,VWS V14.01,2013-07-14 19:12:00,
2013-07-14 15:17:00,91.0,71.5,30.18,ENE,66,0.0,5.0,53,0.00,,,0.01,805.00,VWS V14.01,2013-07-14 19:17:00,
2013-07-14 15:22:00,90.7,72.3,30.18,ESE,108,0.0,1.0,55,0.00,,,0.01,875.00,VWS V14.01,2013-07-14 19:22:00,
2013-07-14 15:27:00,90.7,71.8,30.18,SE,128,6.0,9.0,54,0.00,,,0.01,875.00,VWS V14.01,2013-07-14 19:27:00,
2013-07-14 15:32:00,91.0,72.1,30.18,ESE,107,3.0,6.0,54,0.00,,,0.01,865.00,VWS V14.01,2013-07-14 19:32:00,
2013-07-14 15:37:00,91.2,71.7,30.18,SE,129,4.0,7.0,53,0.00,,,0.01,824.00,VWS V14.01,2013-07-14 19:37:00,
2013-07-14 15:42:00,90.7,72.3,30.18,East,94,1.0,4.0,55,0.00,,,0.01,828.00,VWS V14.01,2013-07-14 19:42:00,
2013-07-14 15:47:00,90.1,71.8,30.17,East,100,3.0,11.0,55,0.00,,,0.01,257.00,VWS V14.01,2013-07-14 19:47:00,
2013-07-14 15:52:00,89.7,71.4,30.17,East,101,5.0,7.0,55,0.00,,,0.01,213.00,VWS V14.01,2013-07-14 19:52:00,
2013-07-14 15:57:00,89.5,72.3,30.17,SE,131,3.0,6.0,57,0.00,,,0.01,798.00,VWS V14.01,2013-07-14 19:57:00,
2013-07-14 16:02:00,89.5,71.2,30.17,East,101,3.0,6.0,55,0.00,,,0.01,826.00,VWS V14.01,2013-07-14 20:02:00,
2013-07-14 16:07:00,89.9,70.5,30.17,SE,134,4.0,6.0,53,0.00,,,0.01,821.00,VWS V14.01,2013-07-14 20:07:00,
2013-07-14 16:12:00,90.5,71.6,30.17,ESE,120,3.0,6.0,54,0.00,,,0.01,582.00,VWS V14.01,2013-07-14 20:12:00,
2013-07-14 16:17:00,90.7,72.3,30.17,SE,127,6.0,9.0,55,0.00,,,0.01,780.00,VWS V14.01,2013-07-14 20:17:00,
2013-07-14 16:22:00,91.0,72.1,30.17,NE,48,0.0,0.0,54,0.00,,,0.01,735.00,VWS V14.01,2013-07-14 20:22:00,
2013-07-14 16:27:00,91.0,70.4,30.17,East,79,2.0,7.0,51,0.00,,,0.01,708.00,VWS V14.01,2013-07-14 20:27:00,
2013-07-14 16:32:00,91.2,70.6,30.16,NE,49,0.0,0.0,51,0.00,,,0.01,747.00,VWS V14.01,2013-07-14 20:32:00,
2013-07-14 16:37:00,91.4,71.3,30.16,SE,136,3.0,6.0,52,0.00,,,0.01,719.00,VWS V14.01,2013-07-14 20:37:00,
2013-07-14 16:42:00,91.4,70.7,30.16,East,97,0.0,4.0,51,0.00,,,0.01,684.00,VWS V14.01,2013-07-14 20:42:00,
2013-07-14 16:47:00,91.4,71.3,30.16,ESE,103,0.0,2.0,52,0.00,,,0.01,675.00,VWS V14.01,2013-07-14 20:47:00,
2013-07-14 16:52:00,91.4,71.9,30.16,East,97,2.0,5.0,53,0.00,,,0.01,671.00,VWS V14.01,2013-07-14 20:52:00,
2013-07-14 16:57:00,91.4,71.3,30.16,SE,141,2.0,7.0,52,0.00,,,0.01,668.00,VWS V14.01,2013-07-14 20:57:00,
2013-07-14 17:02:00,91.4,71.3,30.16,East,83,0.0,4.0,52,0.00,,,0.01,489.00,VWS V14.01,2013-07-14 21:02:00,
2013-07-14 17:07:00,91.0,70.9,30.16,ENE,77,8.0,8.0,52,0.00,,,0.01,206.00,VWS V14.01,2013-07-14 21:07:00,
2013-07-14 17:12:00,90.5,71.1,30.16,ENE,74,1.0,7.0,53,0.00,,,0.01,571.00,VWS V14.01,2013-07-14 21:12:00,
2013-07-14 17:17:00,90.3,71.4,30.16,East,93,4.0,4.0,54,0.00,,,0.01,582.00,VWS V14.01,2013-07-14 21:17:00,
2013-07-14 17:22:00,90.5,72.1,30.16,ENE,74,6.0,9.0,55,0.00,,,0.01,243.00,VWS V14.01,2013-07-14 21:22:00,
2013-07-14 17:27:00,89.9,71.6,30.16,ESE,108,0.0,3.0,55,0.00,,,0.01,206.00,VWS V14.01,2013-07-14 21:27:00,
2013-07-14 17:32:00,89.3,71.6,30.16,East,82,4.0,5.0,56,0.00,,,0.01,169.00,VWS V14.01,2013-07-14 21:32:00,
2013-07-14 17:37:00,88.4,72.3,30.16,East,93,0.0,6.0,59,0.00,,,0.01,167.00,VWS V14.01,2013-07-14 21:37:00,
2013-07-14 17:42:00,88.2,72.1,30.16,East,89,0.0,3.0,59,0.00,,,0.01,332.00,VWS V14.01,2013-07-14 21:42:00,
2013-07-14 17:47:00,88.2,72.1,30.16,ESE,103,0.0,2.0,59,0.00,,,0.01,325.00,VWS V14.01,2013-07-14 21:47:00,
2013-07-14 17:52:00,88.2,72.1,30.16,East,82,0.0,3.0,59,0.00,,,0.01,285.00,VWS V14.01,2013-07-14 21:52:00,
2013-07-14 17:57:00,88.4,73.2,30.16,ENE,69,0.0,0.0,61,0.00,,,0.01,339.00,VWS V14.01,2013-07-14 21:57:00,
2013-07-14 18:02:00,88.4,72.3,30.15,ENE,65,1.0,1.0,59,0.00,,,0.01,350.00,VWS V14.01,2013-07-14 22:02:00,
2013-07-14 18:07:00,88.6,72.4,30.15,East,85,0.0,0.0,59,0.00,,,0.01,290.00,VWS V14.01,2013-07-14 22:07:00,
2013-07-14 18:12:00,88.6,72.4,30.15,East,95,0.0,0.0,59,0.00,,,0.01,294.00,VWS V14.01,2013-07-14 22:12:00,
2013-07-14 18:17:00,88.6,71.9,30.15,NE,39,1.0,4.0,58,0.00,,,0.01,248.00,VWS V14.01,2013-07-14 22:17:00,
2013-07-14 18:22:00,88.2,71.1,30.15,ENE,61,6.0,7.0,57,0.00,,,0.01,163.00,VWS V14.01,2013-07-14 22:22:00,
2013-07-14 18:27:00,87.8,71.2,30.15,NE,54,3.0,5.0,58,0.00,,,0.01,230.00,VWS V14.01,2013-07-14 22:27:00,
2013-07-14 18:32:00,87.8,71.7,30.16,East,84,0.0,1.0,59,0.00,,,0.01,207.00,VWS V14.01,2013-07-14 22:32:00,
2013-07-14 18:37:00,87.6,71.5,30.16,East,98,0.0,0.0,59,0.00,,,0.01,137.00,VWS V14.01,2013-07-14 22:37:00,
2013-07-14 18:42:00,87.4,71.8,30.16,East,99,0.0,1.0,60,0.00,,,0.01,107.00,VWS V14.01,2013-07-14 22:42:00,
2013-07-14 18:47:00,87.2,71.6,30.16,East,99,0.0,0.0,60,0.00,,,0.01,111.00,VWS V14.01,2013-07-14 22:47:00,
2013-07-14 18:52:00,87.2,72.1,30.16,NE,34,0.0,0.0,61,0.00,,,0.01,100.00,VWS V14.01,2013-07-14 22:52:00,
2013-07-14 18:57:00,87.0,72.9,30.16,NE,34,0.0,0.0,63,0.00,,,0.01,93.00,VWS V14.01,2013-07-14 22:57:00,
2013-07-14 19:02:00,86.7,72.1,30.16,SE,129,0.0,5.0,62,0.00,,,0.01,74.00,VWS V14.01,2013-07-14 23:02:00,
2013-07-14 19:07:00,86.3,72.2,30.16,ESE,106,0.0,0.0,63,0.00,,,0.01,72.00,VWS V14.01,2013-07-14 23:07:00,
2013-07-14 19:12:00,86.3,72.7,30.16,East,93,0.0,0.0,64,0.00,,,0.01,74.00,VWS V14.01,2013-07-14 23:12:00,
2013-07-14 19:17:00,85.9,72.3,30.16,East,94,0.0,0.0,64,0.00,,,0.01,72.00,VWS V14.01,2013-07-14 23:17:00,
2013-07-14 19:22:00,85.9,72.8,30.16,East,94,0.0,0.0,65,0.00,,,0.01,62.00,VWS V14.01,2013-07-14 23:22:00,
2013-07-14 19:27:00,85.5,71.9,30.16,East,94,1.0,1.0,64,0.00,,,0.01,51.00,VWS V14.01,2013-07-14 23:27:00,
2013-07-14 19:32:00,85.1,71.6,30.17,East,95,3.0,3.0,64,0.00,,,0.01,30.00,VWS V14.01,2013-07-14 23:32:00,
2013-07-14 19:37:00,84.9,72.7,30.17,SSE,154,4.0,5.0,67,0.00,,,0.01,19.00,VWS V14.01,2013-07-14 23:37:00,
2013-07-14 19:42:00,84.3,72.6,30.17,SE,133,6.0,6.0,68,0.00,,,0.01,16.00,VWS V14.01,2013-07-14 23:42:00,
2013-07-14 19:47:00,83.4,72.2,30.17,SSE,160,6.0,10.0,69,0.00,,,0.01,18.00,VWS V14.01,2013-07-14 23:47:00,
2013-07-14 19:52:00,82.6,72.2,30.17,South,180,0.0,2.0,71,0.00,,,0.01,19.00,VWS V14.01,2013-07-14 23:52:00,
2013-07-14 19:57:00,82.0,72.5,30.17,South,180,0.0,0.0,73,0.00,,,0.01,21.00,VWS V14.01,2013-07-14 23:57:00,
2013-07-14 20:02:00,81.6,72.1,30.17,South,180,0.0,0.0,73,0.00,,,0.01,21.00,VWS V14.01,2013-07-15 00:02:00,
2013-07-14 20:07:00,81.2,72.5,30.17,South,180,0.0,0.0,75,0.00,,,0.01,19.00,VWS V14.01,2013-07-15 00:07:00,
2013-07-14 20:12:00,80.9,72.6,30.17,South,180,0.0,0.0,76,0.00,,,0.01,14.00,VWS V14.01,2013-07-15 00:12:00,
2013-07-14 20:17:00,80.7,72.8,30.17,South,180,0.0,0.0,77,0.00,,,0.01,11.00,VWS V14.01,2013-07-15 00:17:00,
2013-07-14 20:22:00,80.5,73.0,30.17,South,180,0.0,0.0,78,0.00,,,0.01,7.00,VWS V14.01,2013-07-15 00:22:00,
2013-07-14 20:27:00,80.3,73.2,30.17,South,180,0.0,0.0,79,0.00,,,0.01,0.00,VWS V14.01,2013-07-15 00:27:00,
2013-07-14 20:32:00,79.9,73.2,30.17,South,180,0.0,0.0,80,0.00,,,0.01,0.00,VWS V14.01,2013-07-15 00:32:00,
2013-07-14 20:37:00,79.8,73.4,30.17,South,180,0.0,0.0,81,0.00,,,0.01,5.00,VWS V14.01,2013-07-15 00:37:00,
2013-07-14 20:42:00,79.6,74.0,30.17,South,180,0.0,0.0,83,0.00,,,0.01,0.00,VWS V14.01,2013-07-15 00:42:00,
2013-07-14 20:47:00,79.2,73.9,30.17,South,180,0.0,0.0,84,0.00,,,0.01,0.00,VWS V14.01,2013-07-15 00:47:00,
2013-07-14 20:52:00,78.8,73.6,30.17,South,180,0.0,0.0,84,0.00,,,0.01,0.00,VWS V14.01,2013-07-15 00:52:00,
2013-07-14 20:57:00,78.5,73.6,30.17,South,180,0.0,0.0,85,0.00,,,0.01,0.00,VWS V14.01,2013-07-15 00:57:00,
2013-07-14 21:02:00,78.3,73.4,30.18,South,180,0.0,0.0,85,0.00,,,0.01,0.00,VWS V14.01,2013-07-15 01:02:00,
2013-07-14 21:07:00,78.1,73.6,30.18,South,180,0.0,0.0,86,0.00,,,0.01,0.00,VWS V14.01,2013-07-15 01:07:00,
2013-07-14 21:12:00,77.9,73.4,30.18,South,180,0.0,0.0,86,0.00,,,0.01,0.00,VWS V14.01,2013-07-15 01:12:00,
2013-07-14 21:17:00,77.7,73.5,30.18,South,180,0.0,0.0,87,0.00,,,0.01,0.00,VWS V14.01,2013-07-15 01:17:00,
2013-07-14 21:22:00,77.6,73.4,30.18,South,180,0.0,0.0,87,0.00,,,0.01,0.00,VWS V14.01,2013-07-15 01:22:00,
2013-07-14 21:27:00,77.4,73.2,30.18,South,180,0.0,0.0,87,0.00,,,0.01,0.00,VWS V14.01,2013-07-15 01:27:00,
2013-07-14 21:32:00,77.4,73.2,30.19,South,180,0.0,0.0,87,0.00,,,0.01,0.00,VWS V14.01,2013-07-15 01:32:00,
2013-07-14 21:37:00,77.2,73.4,30.19,South,180,0.0,0.0,88,0.00,,,0.01,0.00,VWS V14.01,2013-07-15 01:37:00,
2013-07-14 21:42:00,77.2,73.4,30.19,South,180,0.0,0.0,88,0.00,,,0.01,0.00,VWS V14.01,2013-07-15 01:42:00,
2013-07-14 21:47:00,77.0,73.2,30.20,South,180,0.0,0.0,88,0.00,,,0.01,0.00,VWS V14.01,2013-07-15 01:47:00,
2013-07-14 21:52:00,77.0,73.5,30.20,South,180,0.0,0.0,89,0.00,,,0.01,0.00,VWS V14.01,2013-07-15 01:52:00,
2013-07-14 21:57:00,77.0,73.5,30.20,South,180,0.0,0.0,89,0.00,,,0.01,0.00,VWS V14.01,2013-07-15 01:57:00,
2013-07-14 22:02:00,76.8,73.3,30.20,South,180,0.0,0.0,89,0.00,,,0.01,0.00,VWS V14.01,2013-07-15 02:02:00,
2013-07-14 22:07:00,76.8,73.3,30.20,South,180,0.0,0.0,89,0.00,,,0.01,0.00,VWS V14.01,2013-07-15 02:07:00,
2013-07-14 22:12:00,76.7,73.6,30.20,South,180,0.0,0.0,90,0.00,,,0.01,0.00,VWS V14.01,2013-07-15 02:12:00,
2013-07-14 22:17:00,76.5,73.3,30.20,South,180,0.0,0.0,90,0.00,,,0.01,0.00,VWS V14.01,2013-07-15 02:17:00,
2013-07-14 22:22:00,76.3,73.2,30.20,South,180,0.0,0.0,90,0.00,,,0.01,0.00,VWS V14.01,2013-07-15 02:22:00,
2013-07-14 22:27:00,76.1,73.0,30.20,South,180,0.0,0.0,90,0.00,,,0.01,0.00,VWS V14.01,2013-07-15 02:27:00,
2013-07-14 22:32:00,76.0,72.9,30.20,South,180,0.0,0.0,90,0.00,,,0.01,0.00,VWS V14.01,2013-07-15 02:32:00,
2013-07-14 22:37:00,76.0,72.9,30.20,South,180,0.0,0.0,90,0.00,,,0.01,0.00,VWS V14.01,2013-07-15 02:37:00,
2013-07-14 22:42:00,75.8,72.7,30.20,South,180,0.0,0.0,90,0.00,,,0.01,0.00,VWS V14.01,2013-07-15 02:42:00,
2013-07-14 22:47:00,75.6,72.5,30.21,South,180,0.0,0.0,90,0.00,,,0.01,0.00,VWS V14.01,2013-07-15 02:47:00,
2013-07-14 22:52:00,75.6,72.5,30.21,South,180,0.0,0.0,90,0.00,,,0.01,0.00,VWS V14.01,2013-07-15 02:52:00,
2013-07-14 22:57:00,75.4,72.3,30.21,South,180,0.0,0.0,90,0.00,,,0.01,0.00,VWS V14.01,2013-07-15 02:57:00,
2013-07-14 23:02:00,75.3,72.2,30.21,South,180,0.0,0.0,90,0.00,,,0.01,0.00,VWS V14.01,2013-07-15 03:02:00,
2013-07-14 23:07:00,75.1,72.0,30.21,South,180,0.0,0.0,90,0.00,,,0.01,0.00,VWS V14.01,2013-07-15 03:07:00,
2013-07-14 23:12:00,75.1,72.0,30.21,South,180,0.0,0.0,90,0.00,,,0.01,0.00,VWS V14.01,2013-07-15 03:12:00,
2013-07-14 23:17:00,74.9,71.8,30.21,South,180,0.0,0.0,90,0.00,,,0.01,0.00,VWS V14.01,2013-07-15 03:17:00,
2013-07-14 23:22:00,74.7,71.6,30.21,South,180,0.0,0.0,90,0.00,,,0.01,0.00,VWS V14.01,2013-07-15 03:22:00,
2013-07-14 23:27:00,74.7,71.6,30.21,South,180,0.0,0.0,90,0.00,,,0.01,0.00,VWS V14.01,2013-07-15 03:27:00,
2013-07-14 23:32:00,74.6,71.5,30.21,South,180,0.0,0.0,90,0.00,,,0.01,0.00,VWS V14.01,2013-07-15 03:32:00,
2013-07-14 23:37:00,74.4,71.3,30.21,South,180,0.0,0.0,90,0.00,,,0.01,0.00,VWS V14.01,2013-07-15 03:37:00,
2013-07-14 23:42:00,74.4,71.3,30.21,South,180,0.0,0.0,90,0.00,,,0.01,0.00,VWS V14.01,2013-07-15 03:42:00,
2013-07-14 23:47:00,74.2,71.1,30.21,South,180,0.0,0.0,90,0.00,,,0.01,0.00,VWS V14.01,2013-07-15 03:47:00,
2013-07-14 23:52:00,74.0,70.9,30.21,South,180,0.0,0.0,90,0.00,,,0.01,0.00,VWS V14.01,2013-07-15 03:52:00,
2013-07-14 23:57:00,73.9,70.8,30.21,South,180,0.0,0.0,90,0.00,,,0.01,0.00,VWS V14.01,2013-07-15 03:57:00,